Time,TemperatureF,DewpointF,PressureIn,WindDirection,WindDirectionDegrees,WindSpeedMPH,WindSpeedGustMPH,Humidity,HourlyPrecipIn,Conditions,Clouds,dailyrainin,SoftwareType,DateUTC
2013-04-30 00:01:00,41.1,37.8,30.17,SE,140,2.0,6.0,88,0.00,RA,,0.00,WeatherDisplay:10.37,2013-04-30 07:01:00,
2013-04-30 00:11:00,41.0,38.0,30.18,SSE,148,2.0,3.0,89,0.00,OVC,,0.00,WeatherDisplay:10.37,2013-04-30 07:11:00,
2013-04-30 00:16:00,40.9,37.9,30.18,ESE,114,0.0,2.0,89,0.00,OVC,,0.00,WeatherDisplay:10.37,2013-04-30 07:16:00,
2013-04-30 00:26:00,40.6,37.9,30.18,North,1,0.0,4.0,90,0.00,RA,,0.01,WeatherDisplay:10.37,2013-04-30 07:26:00,
2013-04-30 00:31:00,40.6,37.9,30.18,North,357,0.0,1.0,90,0.00,OVC,,0.01,WeatherDisplay:10.37,2013-04-30 07:31:00,
2013-04-30 00:36:00,40.5,38.1,30.19,North,357,0.0,1.0,91,0.00,OVC,,0.01,WeatherDisplay:10.37,2013-04-30 07:36:00,
2013-04-30 00:41:00,40.4,38.0,30.19,NNW,348,1.0,3.0,91,0.01,RA,,0.02,WeatherDisplay:10.37,2013-04-30 07:41:00,
2013-04-30 00:46:00,40.1,37.4,30.18,NNW,339,0.0,1.0,90,0.00,RA,,0.02,WeatherDisplay:10.37,2013-04-30 07:46:00,
2013-04-30 00:51:00,40.0,37.6,30.18,NE,40,0.0,1.0,91,0.01,RA,,0.03,WeatherDisplay:10.37,2013-04-30 07:51:00,
2013-04-30 00:56:00,39.8,37.4,30.18,East,101,0.0,1.0,91,0.00,RA,,0.03,WeatherDisplay:10.37,2013-04-30 07:56:00,
2013-04-30 01:01:00,39.7,37.6,30.19,ESE,120,0.0,1.0,92,0.00,OVC,,0.03,WeatherDisplay:10.37,2013-04-30 08:01:00,
2013-04-30 01:11:00,39.4,37.3,30.18,SE,131,0.0,1.0,92,0.01,RA,,0.04,WeatherDisplay:10.37,2013-04-30 08:11:00,
2013-04-30 01:16:00,39.3,37.2,30.18,SE,131,0.0,1.0,92,0.00,RA,,0.04,WeatherDisplay:10.37,2013-04-30 08:16:00,
2013-04-30 01:21:00,39.2,37.3,30.18,SE,126,1.0,1.0,93,0.00,OVC,,0.04,WeatherDisplay:10.37,2013-04-30 08:21:00,
2013-04-30 01:26:00,39.1,37.3,30.18,ESE,122,0.0,1.0,93,0.00,OVC,,0.04,WeatherDisplay:10.37,2013-04-30 08:26:00,
2013-04-30 01:31:00,39.2,37.3,30.18,ESE,121,0.0,1.0,93,0.00,OVC,,0.04,WeatherDisplay:10.37,2013-04-30 08:31:00,
2013-04-30 01:36:00,39.1,37.2,30.18,SE,135,1.0,4.0,93,0.01,RA,,0.05,WeatherDisplay:10.37,2013-04-30 08:36:00,
2013-04-30 01:41:00,39.1,37.2,30.18,SSE,149,1.0,4.0,93,0.00,RA,,0.05,WeatherDisplay:10.37,2013-04-30 08:41:00,
2013-04-30 01:46:00,39.1,37.2,30.18,SSE,148,0.0,3.0,93,0.00,OVC,,0.05,WeatherDisplay:10.37,2013-04-30 08:46:00,
2013-04-30 01:51:00,39.1,37.2,30.18,SE,139,0.0,2.0,93,0.00,OVC,,0.05,WeatherDisplay:10.37,2013-04-30 08:51:00,
2013-04-30 01:56:00,39.2,37.3,30.18,SSE,153,0.0,0.0,93,0.00,OVC,,0.05,WeatherDisplay:10.37,2013-04-30 08:56:00,
2013-04-30 02:01:00,39.1,37.2,30.18,SSE,152,0.0,0.0,93,0.00,OVC,,0.05,WeatherDisplay:10.37,2013-04-30 09:01:00,
2013-04-30 02:11:00,39.1,37.2,30.18,SSE,152,0.0,0.0,93,0.00,OVC,,0.05,WeatherDisplay:10.37,2013-04-30 09:11:00,
2013-04-30 02:16:00,39.1,37.2,30.18,SSE,152,0.0,0.0,93,0.00,OVC,,0.05,WeatherDisplay:10.37,2013-04-30 09:16:00,
2013-04-30 02:21:00,38.9,37.1,30.18,SSE,152,0.0,0.0,93,0.00,OVC,,0.05,WeatherDisplay:10.37,2013-04-30 09:21:00,
2013-04-30 02:26:00,38.8,36.9,30.19,SSE,152,0.0,0.0,93,0.00,OVC,,0.05,WeatherDisplay:10.37,2013-04-30 09:26:00,
2013-04-30 02:31:00,38.6,36.8,30.19,SSE,152,0.0,0.0,93,0.00,OVC,,0.05,WeatherDisplay:10.37,2013-04-30 09:31:00,
2013-04-30 02:36:00,38.5,36.9,30.19,SSE,152,0.0,1.0,94,0.00,OVC,,0.05,WeatherDisplay:10.37,2013-04-30 09:36:00,
2013-04-30 02:41:00,38.5,36.9,30.18,SSE,152,0.0,0.0,94,0.00,OVC,,0.05,WeatherDisplay:10.37,2013-04-30 09:41:00,
2013-04-30 02:46:00,38.5,36.9,30.18,SSE,152,0.0,0.0,94,0.00,OVC,,0.05,WeatherDisplay:10.37,2013-04-30 09:46:00,
2013-04-30 02:51:00,38.5,36.9,30.19,SSE,152,0.0,0.0,94,0.00,OVC,,0.05,WeatherDisplay:10.37,2013-04-30 09:51:00,
2013-04-30 02:56:00,38.5,37.2,30.19,SSE,152,0.0,0.0,95,0.00,OVC,,0.05,WeatherDisplay:10.37,2013-04-30 09:56:00,
2013-04-30 03:01:00,38.4,36.8,30.19,SSE,152,0.0,0.0,94,0.00,BKN,,0.05,WeatherDisplay:10.37,2013-04-30 10:01:00,
2013-04-30 03:11:00,38.2,36.8,30.19,SSE,155,0.0,0.0,95,0.00,BKN,,0.05,WeatherDisplay:10.37,2013-04-30 10:11:00,
2013-04-30 03:16:00,38.0,36.7,30.19,SSE,156,0.0,0.0,95,0.00,BKN,,0.05,WeatherDisplay:10.37,2013-04-30 10:16:00,
2013-04-30 03:21:00,37.8,36.5,30.19,SSE,156,0.0,0.0,95,0.00,BKN,,0.05,WeatherDisplay:10.37,2013-04-30 10:21:00,
2013-04-30 03:26:00,37.5,36.2,30.19,SSE,156,0.0,0.0,95,0.00,BKN,,0.05,WeatherDisplay:10.37,2013-04-30 10:26:00,
2013-04-30 03:31:00,37.4,36.1,30.20,SSE,156,0.0,0.0,95,0.00,BKN,,0.05,WeatherDisplay:10.37,2013-04-30 10:31:00,
2013-04-30 03:36:00,37.2,35.9,30.20,SSE,156,0.0,0.0,95,0.00,BKN,,0.05,WeatherDisplay:10.37,2013-04-30 10:36:00,
2013-04-30 03:41:00,37.0,35.7,30.20,SSE,156,0.0,0.0,95,0.00,BKN,,0.05,WeatherDisplay:10.37,2013-04-30 10:41:00,
2013-04-30 03:46:00,36.8,35.5,30.20,SSE,156,0.0,0.0,95,0.00,BKN,,0.05,WeatherDisplay:10.37,2013-04-30 10:46:00,
2013-04-30 03:51:00,36.5,35.3,30.20,SSE,156,0.0,0.0,95,0.00,BKN,,0.05,WeatherDisplay:10.37,2013-04-30 10:51:00,
2013-04-30 03:56:00,36.5,35.2,30.20,SSE,156,0.0,0.0,95,0.00,BKN,,0.05,WeatherDisplay:10.37,2013-04-30 10:56:00,
2013-04-30 04:01:00,36.7,35.6,30.20,SSE,156,0.0,0.0,96,0.00,SCT,,0.05,WeatherDisplay:10.37,2013-04-30 11:01:00,
2013-04-30 04:11:00,36.9,35.8,30.20,SSE,156,0.0,0.0,96,0.00,SCT,,0.05,WeatherDisplay:10.37,2013-04-30 11:11:00,
2013-04-30 04:16:00,36.9,35.9,30.20,SSE,156,0.0,0.0,96,0.00,SCT,,0.05,WeatherDisplay:10.37,2013-04-30 11:16:00,
2013-04-30 04:21:00,36.9,35.9,30.21,SSE,156,0.0,0.0,96,0.00,SCT,,0.05,WeatherDisplay:10.37,2013-04-30 11:21:00,
2013-04-30 04:26:00,37.0,36.0,30.21,SSE,156,0.0,0.0,96,0.00,SCT,,0.05,WeatherDisplay:10.37,2013-04-30 11:26:00,
2013-04-30 04:31:00,37.1,36.1,30.21,SSE,156,0.0,0.0,96,0.00,SCT,,0.05,WeatherDisplay:10.37,2013-04-30 11:31:00,
2013-04-30 04:36:00,37.2,36.2,30.21,SSE,156,0.0,0.0,96,0.00,SCT,,0.05,WeatherDisplay:10.37,2013-04-30 11:36:00,
2013-04-30 04:41:00,37.4,36.4,30.21,SSE,156,0.0,0.0,96,0.00,SCT,,0.05,WeatherDisplay:10.37,2013-04-30 11:41:00,
2013-04-30 04:46:00,37.6,36.6,30.22,SSE,156,0.0,0.0,96,0.00,SCT,,0.05,WeatherDisplay:10.37,2013-04-30 11:46:00,
2013-04-30 04:51:00,37.7,36.7,30.22,SSE,156,0.0,0.0,96,0.00,SCT,,0.05,WeatherDisplay:10.37,2013-04-30 11:51:00,
2013-04-30 04:56:00,37.7,36.7,30.22,SSE,156,0.0,1.0,96,0.00,SCT,,0.05,WeatherDisplay:10.37,2013-04-30 11:56:00,
2013-04-30 05:01:00,37.7,36.7,30.22,SSE,156,0.0,1.0,96,0.00,SCT,,0.05,WeatherDisplay:10.37,2013-04-30 12:01:00,
2013-04-30 05:11:00,37.8,36.8,30.22,SSE,156,0.0,0.0,96,0.00,SCT,,0.05,WeatherDisplay:10.37,2013-04-30 12:11:00,
2013-04-30 05:16:00,37.9,36.9,30.23,South,169,0.0,1.0,96,0.00,BKN,,0.05,WeatherDisplay:10.37,2013-04-30 12:16:00,
2013-04-30 05:21:00,38.2,37.4,30.23,SW,230,1.0,4.0,97,0.00,BKN,,0.05,WeatherDisplay:10.37,2013-04-30 12:21:00,
2013-04-30 05:26:00,37.8,36.5,30.23,West,281,1.0,5.0,95,0.00,BKN,,0.05,WeatherDisplay:10.37,2013-04-30 12:26:00,
2013-04-30 05:31:00,37.2,35.3,30.24,WNW,302,3.0,10.0,93,0.03,RA,,0.08,WeatherDisplay:10.37,2013-04-30 12:31:00,
2013-04-30 05:36:00,36.0,33.9,30.24,WNW,287,2.0,7.0,92,0.02,RA,,0.10,WeatherDisplay:10.37,2013-04-30 12:36:00,
2013-04-30 05:41:00,35.5,33.9,30.24,WNW,282,0.0,2.0,94,0.02,RA,,0.12,WeatherDisplay:10.37,2013-04-30 12:41:00,
2013-04-30 05:46:00,35.1,33.6,30.24,SE,135,1.0,2.0,94,0.01,RA,,0.13,WeatherDisplay:10.37,2013-04-30 12:46:00,
2013-04-30 05:51:00,34.9,33.6,30.24,ESE,123,0.0,2.0,95,0.01,RA,,0.14,WeatherDisplay:10.37,2013-04-30 12:51:00,
2013-04-30 05:56:00,34.7,33.4,30.23,South,175,0.0,5.0,95,0.00,RA,,0.14,WeatherDisplay:10.37,2013-04-30 12:56:00,
2013-04-30 06:01:00,34.8,33.8,30.23,SE,145,2.0,6.0,96,0.01,RA,,0.15,WeatherDisplay:10.37,2013-04-30 13:01:00,
2013-04-30 06:11:00,35.5,34.2,30.22,SE,129,0.0,2.0,95,0.00,OVC,,0.15,WeatherDisplay:10.37,2013-04-30 13:11:00,
2013-04-30 06:16:00,35.6,34.5,30.22,SE,131,0.0,1.0,96,0.00,OVC,,0.15,WeatherDisplay:10.37,2013-04-30 13:16:00,
2013-04-30 06:21:00,35.7,34.7,30.22,SE,129,0.0,0.0,96,0.00,OVC,,0.15,WeatherDisplay:10.37,2013-04-30 13:21:00,
2013-04-30 06:26:00,35.8,34.7,30.23,SE,129,0.0,0.0,96,0.00,OVC,,0.15,WeatherDisplay:10.37,2013-04-30 13:26:00,
2013-04-30 06:31:00,35.9,34.9,30.23,SE,129,0.0,0.0,96,0.00,OVC,,0.15,WeatherDisplay:10.37,2013-04-30 13:31:00,
2013-04-30 06:36:00,35.9,34.9,30.24,SE,129,0.0,0.0,96,0.00,OVC,,0.15,WeatherDisplay:10.37,2013-04-30 13:36:00,
2013-04-30 06:41:00,36.1,35.1,30.24,SE,129,0.0,0.0,96,0.00,OVC,,0.15,WeatherDisplay:10.37,2013-04-30 13:41:00,
2013-04-30 06:46:00,36.2,35.2,30.24,SE,129,0.0,1.0,96,0.00,OVC,,0.15,WeatherDisplay:10.37,2013-04-30 13:46:00,
2013-04-30 06:51:00,36.2,35.2,30.25,SE,131,0.0,1.0,96,0.00,OVC,,0.15,WeatherDisplay:10.37,2013-04-30 13:51:00,
2013-04-30 06:56:00,36.5,35.4,30.25,SE,134,0.0,1.0,96,0.00,OVC,,0.15,WeatherDisplay:10.37,2013-04-30 13:56:00,
2013-04-30 07:01:00,36.7,35.7,30.26,SE,130,0.0,1.0,96,0.00,-RA,,0.15,WeatherDisplay:10.37,2013-04-30 14:01:00,
2013-04-30 07:11:00,36.7,35.7,30.26,ENE,76,0.0,4.0,96,0.00,-RA,,0.15,WeatherDisplay:10.37,2013-04-30 14:11:00,
2013-04-30 07:16:00,36.7,35.7,30.26,NE,35,0.0,2.0,96,0.00,SCT,,0.15,WeatherDisplay:10.37,2013-04-30 14:16:00,
2013-04-30 07:21:00,36.7,35.7,30.26,North,359,0.0,1.0,96,0.00,SCT,,0.15,WeatherDisplay:10.37,2013-04-30 14:21:00,
2013-04-30 07:26:00,36.7,35.7,30.27,North,355,0.0,1.0,96,0.00,SCT,,0.15,WeatherDisplay:10.37,2013-04-30 14:26:00,
2013-04-30 07:31:00,36.6,35.6,30.27,North,356,0.0,1.0,96,0.00,SCT,,0.15,WeatherDisplay:10.37,2013-04-30 14:31:00,
2013-04-30 07:36:00,36.8,35.8,30.27,North,356,0.0,1.0,96,0.00,SCT,,0.15,WeatherDisplay:10.37,2013-04-30 14:36:00,
2013-04-30 07:41:00,37.0,36.0,30.27,North,358,0.0,1.0,96,0.00,SCT,,0.15,WeatherDisplay:10.37,2013-04-30 14:41:00,
2013-04-30 07:46:00,37.2,36.2,30.27,NNE,23,0.0,1.0,96,0.00,SCT,,0.15,WeatherDisplay:10.37,2013-04-30 14:46:00,
2013-04-30 07:51:00,37.3,36.3,30.27,NE,34,0.0,0.0,96,0.00,SCT,,0.15,WeatherDisplay:10.37,2013-04-30 14:51:00,
2013-04-30 07:56:00,37.6,36.6,30.27,NE,34,0.0,0.0,96,0.00,SCT,,0.15,WeatherDisplay:10.37,2013-04-30 14:56:00,
2013-04-30 08:01:00,37.9,36.9,30.27,NE,34,0.0,1.0,96,0.00,SCT,,0.15,WeatherDisplay:10.37,2013-04-30 15:01:00,
2013-04-30 08:11:00,38.2,37.2,30.28,NE,34,0.0,1.0,96,0.00,SCT,,0.15,WeatherDisplay:10.37,2013-04-30 15:11:00,
2013-04-30 08:16:00,38.3,37.3,30.28,NNE,33,1.0,3.0,96,0.00,CLR,,0.15,WeatherDisplay:10.37,2013-04-30 15:16:00,
2013-04-30 08:21:00,38.4,37.3,30.28,NNE,18,1.0,3.0,96,0.00,CLR,,0.15,WeatherDisplay:10.37,2013-04-30 15:21:00,
2013-04-30 08:26:00,38.5,37.2,30.29,North,4,0.0,1.0,95,0.00,CLR,,0.15,WeatherDisplay:10.37,2013-04-30 15:26:00,
2013-04-30 08:31:00,38.6,37.3,30.29,NE,38,0.0,1.0,95,0.00,CLR,,0.15,WeatherDisplay:10.37,2013-04-30 15:31:00,
2013-04-30 08:36:00,38.7,37.3,30.29,ESE,121,0.0,1.0,95,0.00,CLR,,0.15,WeatherDisplay:10.37,2013-04-30 15:36:00,
2013-04-30 08:41:00,38.9,37.6,30.29,ESE,123,0.0,1.0,95,0.00,CLR,,0.15,WeatherDisplay:10.37,2013-04-30 15:41:00,
2013-04-30 08:46:00,39.1,37.8,30.29,ESE,111,0.0,1.0,95,0.00,CLR,,0.15,WeatherDisplay:10.37,2013-04-30 15:46:00,
2013-04-30 08:51:00,39.4,38.1,30.30,ESE,109,0.0,0.0,95,0.00,CLR,,0.15,WeatherDisplay:10.37,2013-04-30 15:51:00,
2013-04-30 08:56:00,39.6,38.0,30.30,ESE,116,0.0,1.0,94,0.00,CLR,,0.15,WeatherDisplay:10.37,2013-04-30 15:56:00,
2013-04-30 09:01:00,40.1,38.5,30.30,SE,129,0.0,1.0,94,0.00,OVC,,0.15,WeatherDisplay:10.37,2013-04-30 16:01:00,
2013-04-30 09:11:00,41.2,39.4,30.30,SE,129,0.0,1.0,93,0.00,OVC,,0.15,WeatherDisplay:10.37,2013-04-30 16:11:00,
2013-04-30 09:16:00,41.9,39.8,30.30,East,96,0.0,2.0,92,0.00,OVC,,0.15,WeatherDisplay:10.37,2013-04-30 16:16:00,
2013-04-30 09:21:00,42.6,39.9,30.30,East,84,1.0,2.0,90,0.00,OVC,,0.15,WeatherDisplay:10.37,2013-04-30 16:21:00,
2013-04-30 09:26:00,43.2,40.8,30.30,ENE,63,0.0,2.0,91,0.00,OVC,,0.15,WeatherDisplay:10.37,2013-04-30 16:26:00,
2013-04-30 09:31:00,43.4,39.8,30.30,NE,38,1.0,1.0,87,0.00,OVC,,0.15,WeatherDisplay:10.37,2013-04-30 16:31:00,
2013-04-30 09:36:00,43.2,39.3,30.30,ESE,118,1.0,3.0,86,0.00,OVC,,0.15,WeatherDisplay:10.37,2013-04-30 16:36:00,
2013-04-30 09:41:00,42.8,38.9,30.30,ESE,116,0.0,2.0,86,0.00,OVC,,0.15,WeatherDisplay:10.37,2013-04-30 16:41:00,
2013-04-30 09:46:00,42.8,38.9,30.31,ESE,114,1.0,2.0,86,0.00,OVC,,0.15,WeatherDisplay:10.37,2013-04-30 16:46:00,
2013-04-30 09:51:00,43.0,39.4,30.31,ESE,106,0.0,2.0,87,0.00,OVC,,0.15,WeatherDisplay:10.37,2013-04-30 16:51:00,
2013-04-30 09:56:00,43.5,39.0,30.31,NNE,17,0.0,4.0,84,0.00,OVC,,0.15,WeatherDisplay:10.37,2013-04-30 16:56:00,
2013-04-30 10:01:00,44.6,41.0,30.31,NNE,13,1.0,2.0,87,0.00,OVC,,0.15,WeatherDisplay:10.37,2013-04-30 17:01:00,
2013-04-30 10:11:00,45.3,40.4,30.31,North,357,0.0,2.0,83,0.00,OVC,,0.15,WeatherDisplay:10.37,2013-04-30 17:11:00,
2013-04-30 10:16:00,45.5,40.4,30.31,North,353,1.0,3.0,82,0.00,OVC,,0.15,WeatherDisplay:10.37,2013-04-30 17:16:00,
2013-04-30 10:21:00,45.8,40.0,30.31,South,174,1.0,3.0,80,0.00,OVC,,0.15,WeatherDisplay:10.37,2013-04-30 17:21:00,
2013-04-30 10:26:00,46.3,40.1,30.31,SE,141,1.0,3.0,79,0.00,OVC,,0.15,WeatherDisplay:10.37,2013-04-30 17:26:00,
2013-04-30 10:31:00,46.7,39.9,30.31,East,79,1.0,2.0,77,0.00,OVC,,0.15,WeatherDisplay:10.37,2013-04-30 17:31:00,
2013-04-30 10:36:00,46.7,37.8,30.32,ESE,113,1.0,3.0,71,0.00,OVC,,0.15,WeatherDisplay:10.37,2013-04-30 17:36:00,
2013-04-30 10:41:00,46.4,38.5,30.32,South,189,1.0,4.0,74,0.00,OVC,,0.15,WeatherDisplay:10.37,2013-04-30 17:41:00,
2013-04-30 10:46:00,46.4,37.9,30.32,SSE,148,1.0,5.0,72,0.00,OVC,,0.15,WeatherDisplay:10.37,2013-04-30 17:46:00,
2013-04-30 10:51:00,46.3,38.1,30.32,SSE,156,0.0,4.0,73,0.00,OVC,,0.15,WeatherDisplay:10.37,2013-04-30 17:51:00,
2013-04-30 10:56:00,46.7,38.9,30.32,WSW,255,1.0,3.0,74,0.00,OVC,,0.15,WeatherDisplay:10.37,2013-04-30 17:56:00,
2013-04-30 11:01:00,46.5,39.0,30.32,SW,235,0.0,2.0,75,0.00,OVC,,0.15,WeatherDisplay:10.37,2013-04-30 18:01:00,
2013-04-30 11:11:00,46.0,38.2,30.32,SSE,162,1.0,2.0,74,0.00,OVC,,0.15,WeatherDisplay:10.37,2013-04-30 18:11:00,
2013-04-30 11:16:00,46.4,39.2,30.32,ESE,118,0.0,2.0,76,0.00,OVC,,0.15,WeatherDisplay:10.37,2013-04-30 18:16:00,
2013-04-30 11:21:00,46.8,37.9,30.33,SSE,153,1.0,4.0,71,0.00,OVC,,0.15,WeatherDisplay:10.37,2013-04-30 18:21:00,
2013-04-30 11:26:00,46.9,39.1,30.33,SE,134,0.0,2.0,74,0.00,OVC,,0.15,WeatherDisplay:10.37,2013-04-30 18:26:00,
2013-04-30 11:31:00,46.8,37.9,30.33,East,99,0.0,3.0,71,0.00,BKN,,0.15,WeatherDisplay:10.37,2013-04-30 18:31:00,
2013-04-30 11:36:00,46.6,38.1,30.33,East,99,0.0,2.0,72,0.00,BKN,,0.15,WeatherDisplay:10.37,2013-04-30 18:36:00,
2013-04-30 11:41:00,46.8,38.2,30.33,ESE,108,0.0,1.0,72,0.00,BKN,,0.15,WeatherDisplay:10.37,2013-04-30 18:41:00,
2013-04-30 11:46:00,46.9,38.3,30.33,WNW,288,0.0,2.0,72,0.00,BKN,,0.15,WeatherDisplay:10.37,2013-04-30 18:46:00,
2013-04-30 11:51:00,46.8,37.5,30.34,West,279,1.0,2.0,70,0.00,BKN,,0.15,WeatherDisplay:10.37,2013-04-30 18:51:00,
2013-04-30 11:56:00,46.6,37.3,30.34,West,274,1.0,3.0,70,0.00,BKN,,0.15,WeatherDisplay:10.37,2013-04-30 18:56:00,
2013-04-30 12:01:00,46.4,36.8,30.34,WNW,288,0.0,2.0,69,0.00,FEW,,0.15,WeatherDisplay:10.37,2013-04-30 19:01:00,
2013-04-30 12:11:00,46.9,38.4,30.34,WSW,243,1.0,2.0,72,0.00,FEW,,0.15,WeatherDisplay:10.37,2013-04-30 19:11:00,
2013-04-30 12:16:00,47.3,37.6,30.34,WNW,292,1.0,2.0,69,0.00,FEW,,0.15,WeatherDisplay:10.37,2013-04-30 19:16:00,
2013-04-30 12:21:00,47.6,37.5,30.34,West,280,1.0,4.0,68,0.00,FEW,,0.15,WeatherDisplay:10.37,2013-04-30 19:21:00,
2013-04-30 12:26:00,47.6,37.9,30.34,West,274,0.0,4.0,69,0.00,FEW,,0.15,WeatherDisplay:10.37,2013-04-30 19:26:00,
2013-04-30 12:36:00,47.5,37.4,30.34,WSW,254,0.0,1.0,68,0.00,FEW,,0.15,WeatherDisplay:10.37,2013-04-30 19:36:00,
2013-04-30 12:41:00,47.9,38.6,30.34,ESE,121,1.0,4.0,70,0.00,FEW,,0.15,WeatherDisplay:10.37,2013-04-30 19:41:00,
2013-04-30 12:51:00,49.5,37.0,30.34,SW,225,1.0,5.0,62,0.00,FEW,,0.15,WeatherDisplay:10.37,2013-04-30 19:51:00,
2013-04-30 12:56:00,49.6,37.9,30.34,WNW,282,1.0,4.0,64,0.00,FEW,,0.15,WeatherDisplay:10.37,2013-04-30 19:56:00,
2013-04-30 13:01:00,49.1,36.3,30.34,NW,308,1.0,2.0,61,0.00,CLR,,0.15,WeatherDisplay:10.37,2013-04-30 20:01:00,
2013-04-30 13:11:00,48.8,37.2,30.34,NNW,327,0.0,3.0,64,0.00,CLR,,0.15,WeatherDisplay:10.37,2013-04-30 20:11:00,
2013-04-30 13:16:00,49.7,39.2,30.34,NE,41,0.0,3.0,67,0.00,CLR,,0.15,WeatherDisplay:10.37,2013-04-30 20:16:00,
2013-04-30 13:21:00,51.0,36.8,30.34,ENE,69,1.0,2.0,58,0.00,CLR,,0.15,WeatherDisplay:10.37,2013-04-30 20:21:00,
2013-04-30 13:26:00,50.7,35.1,30.34,ESE,103,0.0,3.0,55,0.00,CLR,,0.15,WeatherDisplay:10.37,2013-04-30 20:26:00,
2013-04-30 13:31:00,50.4,37.9,30.34,SE,137,0.0,1.0,62,0.00,CLR,,0.15,WeatherDisplay:10.37,2013-04-30 20:31:00,
2013-04-30 13:36:00,50.3,36.9,30.34,West,268,0.0,2.0,60,0.00,CLR,,0.15,WeatherDisplay:10.37,2013-04-30 20:36:00,
2013-04-30 13:41:00,50.4,35.8,30.34,NNW,345,1.0,3.0,57,0.00,CLR,,0.15,WeatherDisplay:10.37,2013-04-30 20:41:00,
2013-04-30 13:46:00,51.2,34.6,30.34,North,9,0.0,2.0,53,0.00,CLR,,0.15,WeatherDisplay:10.37,2013-04-30 20:46:00,
2013-04-30 13:51:00,51.0,34.0,30.35,ENE,61,0.0,3.0,52,0.00,CLR,,0.15,WeatherDisplay:10.37,2013-04-30 20:51:00,
2013-04-30 13:56:00,51.6,36.4,30.34,NE,46,1.0,4.0,56,0.00,CLR,,0.15,WeatherDisplay:10.37,2013-04-30 20:56:00,
2013-04-30 14:01:00,52.4,37.2,30.34,NNE,25,0.0,2.0,56,0.00,CLR,,0.15,WeatherDisplay:10.37,2013-04-30 21:01:00,
2013-04-30 14:11:00,52.1,34.5,30.35,West,262,1.0,8.0,51,0.00,CLR,,0.15,WeatherDisplay:10.37,2013-04-30 21:11:00,
2013-04-30 14:16:00,52.1,33.0,30.35,West,262,6.0,12.0,48,0.00,CLR,,0.15,WeatherDisplay:10.37,2013-04-30 21:16:00,
2013-04-30 14:21:00,51.8,35.2,30.35,WSW,240,2.0,7.0,53,0.00,CLR,,0.15,WeatherDisplay:10.37,2013-04-30 21:21:00,
2013-04-30 14:26:00,52.9,35.7,30.35,SW,224,3.0,8.0,52,0.00,CLR,,0.15,WeatherDisplay:10.37,2013-04-30 21:26:00,
2013-04-30 14:31:00,53.0,32.8,30.35,WNW,282,2.0,5.0,46,0.00,CLR,,0.15,WeatherDisplay:10.37,2013-04-30 21:31:00,
2013-04-30 14:36:00,52.9,33.2,30.35,WNW,295,1.0,5.0,47,0.00,CLR,,0.15,WeatherDisplay:10.37,2013-04-30 21:36:00,
2013-04-30 14:41:00,52.8,33.7,30.35,WNW,291,1.0,4.0,48,0.00,CLR,,0.15,WeatherDisplay:10.37,2013-04-30 21:41:00,
2013-04-30 14:46:00,53.8,34.0,30.36,West,267,3.0,6.0,47,0.00,CLR,,0.15,WeatherDisplay:10.37,2013-04-30 21:46:00,
2013-04-30 14:51:00,54.0,32.6,30.36,ENE,67,2.0,4.0,44,0.00,CLR,,0.15,WeatherDisplay:10.37,2013-04-30 21:51:00,
2013-04-30 14:56:00,53.9,31.3,30.36,ENE,67,0.0,3.0,42,0.00,CLR,,0.15,WeatherDisplay:10.37,2013-04-30 21:56:00,
2013-04-30 15:01:00,54.3,32.2,30.36,East,94,2.0,5.0,43,0.00,CLR,,0.15,WeatherDisplay:10.37,2013-04-30 22:01:00,
2013-04-30 15:11:00,54.9,31.0,30.36,ENE,63,0.0,3.0,40,0.00,CLR,,0.15,WeatherDisplay:10.37,2013-04-30 22:11:00,
2013-04-30 15:16:00,54.9,31.6,30.36,North,9,1.0,4.0,41,0.00,CLR,,0.15,WeatherDisplay:10.37,2013-04-30 22:16:00,
2013-04-30 15:21:00,54.3,28.6,30.36,NNW,339,1.0,5.0,37,0.00,CLR,,0.15,WeatherDisplay:10.37,2013-04-30 22:21:00,
2013-04-30 15:26:00,54.2,29.1,30.36,NNE,29,0.0,3.0,38,0.00,CLR,,0.15,WeatherDisplay:10.37,2013-04-30 22:26:00,
2013-04-30 15:31:00,54.7,30.8,30.36,NE,46,2.0,3.0,40,0.00,CLR,,0.15,WeatherDisplay:10.37,2013-04-30 22:31:00,
2013-04-30 15:36:00,54.4,31.1,30.36,North,4,1.0,3.0,41,0.00,CLR,,0.15,WeatherDisplay:10.37,2013-04-30 22:36:00,
2013-04-30 15:41:00,53.7,29.9,30.36,NW,313,1.0,4.0,40,0.00,CLR,,0.15,WeatherDisplay:10.37,2013-04-30 22:41:00,
2013-04-30 15:46:00,53.6,31.1,30.36,NNE,12,1.0,5.0,42,0.00,CLR,,0.15,WeatherDisplay:10.37,2013-04-30 22:46:00,
2013-04-30 15:51:00,53.9,30.7,30.36,ENE,65,1.0,3.0,41,0.00,CLR,,0.15,WeatherDisplay:10.37,2013-04-30 22:51:00,
2013-04-30 15:56:00,54.2,31.6,30.36,East,79,1.0,6.0,42,0.00,CLR,,0.15,WeatherDisplay:10.37,2013-04-30 22:56:00,
2013-04-30 16:01:00,54.3,31.7,30.36,SSW,194,1.0,3.0,42,0.00,CLR,,0.15,WeatherDisplay:10.37,2013-04-30 23:01:00,
2013-04-30 16:11:00,53.4,29.7,30.36,WNW,302,2.0,6.0,40,0.00,CLR,,0.15,WeatherDisplay:10.37,2013-04-30 23:11:00,
2013-04-30 16:16:00,53.2,29.4,30.36,NW,306,1.0,5.0,40,0.00,CLR,,0.15,WeatherDisplay:10.37,2013-04-30 23:16:00,
2013-04-30 16:21:00,53.6,28.6,30.36,NW,312,1.0,4.0,38,0.00,CLR,,0.15,WeatherDisplay:10.37,2013-04-30 23:21:00,
2013-04-30 16:26:00,53.2,28.2,30.36,East,99,1.0,3.0,38,0.00,CLR,,0.15,WeatherDisplay:10.37,2013-04-30 23:26:00,
2013-04-30 16:31:00,53.3,29.5,30.36,East,79,1.0,2.0,40,0.00,CLR,,0.15,WeatherDisplay:10.37,2013-04-30 23:31:00,
2013-04-30 16:36:00,53.2,28.2,30.36,WNW,301,1.0,4.0,38,0.00,CLR,,0.15,WeatherDisplay:10.37,2013-04-30 23:36:00,
2013-04-30 16:41:00,53.3,29.5,30.36,WNW,294,1.0,4.0,40,0.00,CLR,,0.15,WeatherDisplay:10.37,2013-04-30 23:41:00,
2013-04-30 16:46:00,53.3,28.4,30.36,NW,306,1.0,4.0,38,0.00,CLR,,0.15,WeatherDisplay:10.37,2013-04-30 23:46:00,
2013-04-30 16:51:00,53.1,28.8,30.37,WSW,253,1.0,3.0,39,0.00,CLR,,0.15,WeatherDisplay:10.37,2013-04-30 23:51:00,
2013-04-30 16:56:00,53.3,30.8,30.37,West,269,0.0,3.0,42,0.00,CLR,,0.15,WeatherDisplay:10.37,2013-04-30 23:56:00,
2013-04-30 17:01:00,53.2,30.1,30.37,West,268,1.0,5.0,41,0.00,CLR,,0.15,WeatherDisplay:10.37,2013-05-01 00:01:00,
2013-04-30 17:11:00,53.3,30.2,30.37,NW,305,1.0,4.0,41,0.00,CLR,,0.15,WeatherDisplay:10.37,2013-05-01 00:11:00,
2013-04-30 17:16:00,53.2,30.1,30.37,West,264,1.0,4.0,41,0.00,CLR,,0.15,WeatherDisplay:10.37,2013-05-01 00:16:00,
2013-04-30 17:21:00,53.3,30.2,30.38,WSW,257,2.0,4.0,41,0.00,CLR,,0.15,WeatherDisplay:10.37,2013-05-01 00:21:00,
2013-04-30 17:26:00,52.8,30.3,30.38,WSW,243,1.0,5.0,42,0.00,CLR,,0.15,WeatherDisplay:10.37,2013-05-01 00:26:00,
2013-04-30 17:31:00,52.6,30.7,30.38,SW,228,1.0,5.0,43,0.00,CLR,,0.15,WeatherDisplay:10.37,2013-05-01 00:31:00,
2013-04-30 17:36:00,53.1,32.3,30.38,North,349,1.0,5.0,45,0.00,CLR,,0.15,WeatherDisplay:10.37,2013-05-01 00:36:00,
2013-04-30 17:41:00,53.2,32.4,30.38,NW,316,0.0,3.0,45,0.00,CLR,,0.15,WeatherDisplay:10.37,2013-05-01 00:41:00,
2013-04-30 17:46:00,53.0,31.1,30.38,NNW,332,1.0,5.0,43,0.00,CLR,,0.15,WeatherDisplay:10.37,2013-05-01 00:46:00,
2013-04-30 17:51:00,52.7,31.9,30.38,North,350,1.0,4.0,45,0.00,CLR,,0.15,WeatherDisplay:10.37,2013-05-01 00:51:00,
2013-04-30 17:56:00,52.5,31.8,30.38,NE,46,0.0,2.0,45,0.00,CLR,,0.15,WeatherDisplay:10.37,2013-05-01 00:56:00,
2013-04-30 18:01:00,52.4,32.2,30.38,ENE,60,1.0,4.0,46,0.00,CLR,,0.15,WeatherDisplay:10.37,2013-05-01 01:01:00,
2013-04-30 18:11:00,52.3,32.6,30.38,NE,38,0.0,2.0,47,0.00,CLR,,0.15,WeatherDisplay:10.37,2013-05-01 01:11:00,
2013-04-30 18:16:00,52.0,31.3,30.38,NW,310,0.0,4.0,45,0.00,CLR,,0.15,WeatherDisplay:10.37,2013-05-01 01:16:00,
2013-04-30 18:21:00,51.9,33.3,30.38,WNW,300,0.0,0.0,49,0.00,CLR,,0.15,WeatherDisplay:10.37,2013-05-01 01:21:00,
2013-04-30 18:26:00,51.6,31.5,30.38,NW,305,0.0,1.0,46,0.00,CLR,,0.15,WeatherDisplay:10.37,2013-05-01 01:26:00,
2013-04-30 18:31:00,51.4,31.3,30.38,WNW,293,1.0,2.0,46,0.00,CLR,,0.15,WeatherDisplay:10.37,2013-05-01 01:31:00,
2013-04-30 18:36:00,51.5,31.9,30.38,NW,310,0.0,2.0,47,0.00,CLR,,0.15,WeatherDisplay:10.37,2013-05-01 01:36:00,
2013-04-30 18:41:00,51.5,31.9,30.39,WNW,299,0.0,2.0,47,0.00,CLR,,0.15,WeatherDisplay:10.37,2013-05-01 01:41:00,
2013-04-30 18:46:00,51.4,31.8,30.39,WNW,293,0.0,2.0,47,0.00,CLR,,0.15,WeatherDisplay:10.37,2013-05-01 01:46:00,
2013-04-30 18:51:00,51.1,31.0,30.39,NW,307,1.0,1.0,46,0.00,CLR,,0.15,WeatherDisplay:10.37,2013-05-01 01:51:00,
2013-04-30 18:56:00,51.0,30.9,30.39,NW,314,0.0,1.0,46,0.00,CLR,,0.15,WeatherDisplay:10.37,2013-05-01 01:56:00,
2013-04-30 19:01:00,50.9,30.8,30.39,WNW,288,0.0,2.0,46,0.00,BKN,,0.15,WeatherDisplay:10.37,2013-05-01 02:01:00,
2013-04-30 19:11:00,50.6,30.6,30.39,NW,319,0.0,1.0,46,0.00,BKN,,0.15,WeatherDisplay:10.37,2013-05-01 02:11:00,
2013-04-30 19:16:00,50.4,30.9,30.39,WNW,300,0.0,2.0,47,0.00,BKN,,0.15,WeatherDisplay:10.37,2013-05-01 02:16:00,
2013-04-30 19:21:00,50.4,31.4,30.39,WNW,283,0.0,2.0,48,0.00,BKN,,0.15,WeatherDisplay:10.37,2013-05-01 02:21:00,
2013-04-30 19:26:00,50.3,31.4,30.39,WNW,283,0.0,1.0,48,0.00,BKN,,0.15,WeatherDisplay:10.37,2013-05-01 02:26:00,
2013-04-30 19:31:00,50.0,31.1,30.39,WNW,283,0.0,1.0,48,0.00,BKN,,0.15,WeatherDisplay:10.37,2013-05-01 02:31:00,
2013-04-30 19:36:00,49.8,31.9,30.39,WNW,282,0.0,1.0,50,0.00,BKN,,0.15,WeatherDisplay:10.37,2013-05-01 02:36:00,
2013-04-30 19:41:00,49.5,31.6,30.39,West,278,0.0,1.0,50,0.00,BKN,,0.15,WeatherDisplay:10.37,2013-05-01 02:41:00,
2013-04-30 19:46:00,49.3,31.9,30.40,West,268,0.0,1.0,51,0.00,BKN,,0.15,WeatherDisplay:10.37,2013-05-01 02:46:00,
2013-04-30 19:51:00,49.0,32.6,30.40,West,267,0.0,1.0,53,0.00,BKN,,0.15,WeatherDisplay:10.37,2013-05-01 02:51:00,
2013-04-30 19:56:00,48.6,32.2,30.40,West,267,0.0,1.0,53,0.00,BKN,,0.15,WeatherDisplay:10.37,2013-05-01 02:56:00,
2013-04-30 20:01:00,48.3,32.0,30.40,West,263,0.0,1.0,53,0.00,BKN,,0.15,WeatherDisplay:10.37,2013-05-01 03:01:00,
2013-04-30 20:11:00,47.5,34.3,30.40,WSW,239,0.0,0.0,60,0.00,BKN,,0.15,WeatherDisplay:10.37,2013-05-01 03:11:00,
2013-04-30 20:16:00,46.9,34.1,30.40,WSW,239,0.0,0.0,61,0.00,BKN,,0.15,WeatherDisplay:10.37,2013-05-01 03:16:00,
2013-04-30 20:21:00,46.3,33.6,30.40,WSW,239,0.0,0.0,61,0.00,BKN,,0.15,WeatherDisplay:10.37,2013-05-01 03:21:00,
2013-04-30 20:26:00,45.7,33.8,30.40,WSW,239,0.0,0.0,63,0.00,BKN,,0.15,WeatherDisplay:10.37,2013-05-01 03:26:00,
2013-04-30 20:31:00,45.2,33.0,30.40,WSW,239,0.0,0.0,62,0.00,BKN,,0.15,WeatherDisplay:10.37,2013-05-01 03:31:00,
2013-04-30 20:36:00,44.6,32.4,30.40,WSW,239,0.0,0.0,62,0.00,BKN,,0.15,WeatherDisplay:10.37,2013-05-01 03:36:00,
2013-04-30 20:41:00,44.2,33.2,30.40,WSW,239,0.0,0.0,65,0.00,BKN,,0.15,WeatherDisplay:10.37,2013-05-01 03:41:00,
2013-04-30 20:46:00,43.9,33.3,30.41,WSW,239,0.0,0.0,66,0.00,BKN,,0.15,WeatherDisplay:10.37,2013-05-01 03:46:00,
2013-04-30 20:51:00,43.6,34.5,30.41,WSW,239,0.0,0.0,70,0.00,BKN,,0.15,WeatherDisplay:10.37,2013-05-01 03:51:00,
2013-04-30 20:56:00,43.3,34.6,30.41,WSW,239,0.0,1.0,71,0.00,BKN,,0.15,WeatherDisplay:10.37,2013-05-01 03:56:00,
2013-04-30 21:01:00,43.1,35.0,30.41,WSW,239,0.0,0.0,73,0.00,SCT,,0.15,WeatherDisplay:10.37,2013-05-01 04:01:00,
2013-04-30 21:11:00,42.6,34.9,30.42,WSW,239,0.0,0.0,74,0.00,SCT,,0.15,WeatherDisplay:10.37,2013-05-01 04:11:00,
2013-04-30 21:16:00,42.3,34.6,30.42,WSW,239,0.0,0.0,74,0.00,SCT,,0.15,WeatherDisplay:10.37,2013-05-01 04:16:00,
2013-04-30 21:21:00,42.0,34.3,30.42,WSW,239,0.0,0.0,74,0.00,SCT,,0.15,WeatherDisplay:10.37,2013-05-01 04:21:00,
2013-04-30 21:26:00,41.7,34.4,30.42,WSW,239,0.0,0.0,75,0.00,SCT,,0.15,WeatherDisplay:10.37,2013-05-01 04:26:00,
2013-04-30 21:31:00,41.5,34.5,30.42,WSW,239,0.0,0.0,76,0.00,SCT,,0.15,WeatherDisplay:10.37,2013-05-01 04:31:00,
2013-04-30 21:36:00,41.3,34.6,30.42,WSW,239,0.0,0.0,77,0.00,SCT,,0.15,WeatherDisplay:10.37,2013-05-01 04:36:00,
2013-04-30 21:41:00,41.0,34.4,30.42,WSW,239,0.0,0.0,77,0.00,SCT,,0.15,WeatherDisplay:10.37,2013-05-01 04:41:00,
2013-04-30 21:46:00,40.8,34.1,30.42,WSW,239,0.0,0.0,77,0.00,SCT,,0.15,WeatherDisplay:10.37,2013-05-01 04:46:00,
2013-04-30 21:51:00,40.6,33.9,30.42,WSW,239,0.0,0.0,77,0.00,SCT,,0.15,WeatherDisplay:10.37,2013-05-01 04:51:00,
2013-04-30 21:56:00,40.4,34.1,30.43,WSW,239,0.0,0.0,78,0.00,SCT,,0.15,WeatherDisplay:10.37,2013-05-01 04:56:00,
2013-04-30 22:01:00,40.1,33.8,30.43,WSW,239,0.0,0.0,78,0.00,SCT,,0.15,WeatherDisplay:10.37,2013-05-01 05:01:00,
2013-04-30 22:11:00,39.7,33.7,30.43,WSW,239,0.0,0.0,79,0.00,SCT,,0.15,WeatherDisplay:10.37,2013-05-01 05:11:00,
2013-04-30 22:16:00,39.6,33.9,30.43,WSW,239,0.0,0.0,80,0.00,CLR,,0.15,WeatherDisplay:10.37,2013-05-01 05:16:00,
2013-04-30 22:21:00,39.4,33.7,30.43,WSW,239,0.0,0.0,80,0.00,CLR,,0.15,WeatherDisplay:10.37,2013-05-01 05:21:00,
2013-04-30 22:26:00,39.1,33.5,30.43,WSW,239,0.0,0.0,80,0.00,CLR,,0.15,WeatherDisplay:10.37,2013-05-01 05:26:00,
2013-04-30 22:31:00,39.0,33.4,30.44,WSW,239,0.0,0.0,80,0.00,CLR,,0.15,WeatherDisplay:10.37,2013-05-01 05:31:00,
2013-04-30 22:36:00,39.0,33.7,30.44,WSW,239,0.0,0.0,81,0.00,CLR,,0.15,WeatherDisplay:10.37,2013-05-01 05:36:00,
2013-04-30 22:41:00,38.8,33.5,30.44,WSW,239,0.0,0.0,81,0.00,CLR,,0.15,WeatherDisplay:10.37,2013-05-01 05:41:00,
2013-04-30 22:46:00,38.5,33.5,30.44,WSW,239,0.0,0.0,82,0.00,CLR,,0.15,WeatherDisplay:10.37,2013-05-01 05:46:00,
2013-04-30 22:51:00,38.4,33.1,30.44,WSW,239,0.0,0.0,81,0.00,CLR,,0.15,WeatherDisplay:10.37,2013-05-01 05:51:00,
2013-04-30 22:56:00,38.3,33.0,30.44,WSW,239,0.0,0.0,81,0.00,CLR,,0.15,WeatherDisplay:10.37,2013-05-01 05:56:00,
2013-04-30 23:01:00,38.5,33.2,30.44,SSW,205,0.0,1.0,81,0.00,BKN,,0.15,WeatherDisplay:10.37,2013-05-01 06:01:00,
2013-04-30 23:11:00,39.1,34.0,30.45,South,183,0.0,1.0,82,0.00,BKN,,0.15,WeatherDisplay:10.37,2013-05-01 06:11:00,
2013-04-30 23:16:00,39.1,34.1,30.45,SW,218,0.0,1.0,82,0.00,BKN,,0.15,WeatherDisplay:10.37,2013-05-01 06:16:00,
2013-04-30 23:21:00,39.1,34.4,30.45,South,191,0.0,0.0,83,0.00,BKN,,0.15,WeatherDisplay:10.37,2013-05-01 06:21:00,
2013-04-30 23:26:00,39.2,34.7,30.45,South,184,0.0,1.0,84,0.00,BKN,,0.15,WeatherDisplay:10.37,2013-05-01 06:26:00,
2013-04-30 23:31:00,39.2,34.8,30.45,SSW,208,0.0,1.0,84,0.00,BKN,,0.15,WeatherDisplay:10.37,2013-05-01 06:31:00,
2013-04-30 23:36:00,39.4,35.0,30.45,WSW,246,0.0,1.0,84,0.00,BKN,,0.15,WeatherDisplay:10.37,2013-05-01 06:36:00,
2013-04-30 23:41:00,39.4,35.0,30.45,WSW,245,0.0,2.0,84,0.00,BKN,,0.15,WeatherDisplay:10.37,2013-05-01 06:41:00,
2013-04-30 23:46:00,39.4,35.0,30.45,WSW,242,0.0,1.0,84,0.00,BKN,,0.15,WeatherDisplay:10.37,2013-05-01 06:46:00,
2013-04-30 23:51:00,39.5,35.3,30.45,WSW,250,0.0,1.0,85,0.00,BKN,,0.15,WeatherDisplay:10.37,2013-05-01 06:51:00,
2013-04-30 23:56:00,39.5,35.4,30.45,NW,322,0.0,3.0,85,0.00,BKN,,0.15,WeatherDisplay:10.37,2013-05-01 06:56:00,